Regional Weather Roundup
Issued by NWS Newport/Morehead, NC

Current Version | Previous Version | Graphics & Text | Print | Product List | Glossary On
Versions: 1 2 3 4 5 6 7 8 9 10 11 12 13 14 15 16 17 18 19 20 21 22 23 24 25 26 27 28 29 30 31 32 33 34 35 36 37 38 39 40 41 42 43 44 45 46 47 48 49 50
942 ASUS42 KMHX 270125 RWRMHX WEATHER ROUNDUP FOR EASTERN NORTH CAROLINA NATIONAL WEATHER SERVICE NEWPORT/MOREHEAD CITY NC 900 PM EDT SUN MAR 26 2017 NOTE: "FAIR" INDICATES FEW OR NO CLOUDS BELOW 12,000 FEET WITH NO SIGNIFICANT WEATHER AND/OR OBSTRUCTIONS TO VISIBILITY NCZ015>017-031-032-045>047-102-103-270200- NORTH COAST CITY SKY/WX TMP DP RH WIND PRES REMARKS EDENTON PTCLDY 66 55 66 SE10 30.21R ELIZABETH CITY CLEAR 60 54 80 SE8 30.21R KITTY HAWK NOT AVBL MANTEO PTCLDY 58 55 88 SE7 30.24R $$ NCZ045>047-081-094-103-104-270200- CENTRAL COAST CITY SKY/WX TMP DP RH WIND PRES REMARKS FRISCO CLEAR 66 55 67 SE6 30.23R $$ NCZ095-097-098-100-101-270200- SOUTHERN COAST CITY SKY/WX TMP DP RH WIND PRES REMARKS BEAUFORT PTCLDY 67 56 67 SE6 30.21S CEDAR ISLAND NOT AVBL JACKSONVILLE CLEAR 63 56 78 CALM 30.19R PINEY ISLAND CLEAR N/A N/A N/A S8 30.21S WILMINGTON CLEAR 64 55 72 CALM 30.19R $$ NCZ011>013-027>030-043-044-078>080-089-090>093-098-270200- COASTAL PLAIN CITY SKY/WX TMP DP RH WIND PRES REMARKS AHOSKIE N/A 63 55 75 SE7 30.19R CLINTON CLEAR 66 56 71 CALM 30.18R ELIZABETHTOWN CLEAR 66 56 70 SE6 30.18R GOLDSBORO CLEAR 67 52 58 SE7 30.16R GREENVILLE PTCLDY 68 54 60 S8 30.20R HAVELOCK CLEAR 64 56 75 SE6 30.21S KENANSVILLE CLEAR 64 54 68 SE5 30.19R KINSTON CLEAR 66 54 63 S8 30.20R NEW BERN PTCLDY 61 54 77 CALM 30.21R RICHLANDS CLEAR 61 54 77 SE3 30.20R ROCKY MOUNT CLEAR 67 53 61 S6 30.16S WASHINGTON CLEAR 64 56 73 SE6 30.21R WHITEVILLE CLEAR 65 55 69 SE3 30.17S $$ AMZ130-135-150-152-154-156-158-170-250-252-270-ANZ085-086-088-633-658-670-270200- MARINE OBSERVATIONS STATION/POSITION TIME TEMP WIND PRES WAVE SWELL AIR SEA DIR/SP/G HT/PER HT/PER (UTC) (F) (DEG/KT/KT) (MB) (FT/S) (FT/S) CHESAPEAKE LIGHT NOT AVBL 64 E VA BEACH 0050 56 51 100/ 6/ 8 1024.0 4/ 7 3/ 7 DUCK 0100 53 47 140/ 11/ 12 1022.8 2 E DUCK 0100 51 N/A 3/ 6 OREGON INLET 0100 57 61 90/ 5/ 8 1023.7 13E OREGON INLT 0048 52 N/A 2/ 8 2/ 8 HATTERAS CG 0100 67 60 160/ 6/ 8 1023.4 DIAMOND BUOY 0050 70 76 150/ 8/ 12 1023.7 3/10 3/10 CAPE LOOKOUT 0000 66 180/ 5/ 5 1022.9 BEAUFORT LAB 0100 65 57 140/ 6/ 8 1022.0 30 SE NEW RVR IN 0108 67 140/ 8/ 12 1022.8 30 SE NEW RVR IN 0113 65 N/A 3/11 2/11 27 SE WRIGHTSVLE 0108 67 63 190/ 6/ 10 1021.7 5 SE WRIGHTSVLE 0108 63 62 170/ 8/ 10 1022.1 225 S CAPE HAT 2350 68 72 80/ 10/ 12 1022.9 5/ 8 5/ 8 41 SE CHARLESTON 2350 72 74 140/ 12/ 16 1020.6 4/ 8 3/ 8 $$

USA.gov is the U.S. government's official web portal to all federal, state and local government web resources and services.